This is the latest recevied weather packets stored in our database for station/object KA3ZXO. If no packets are shown the sender has not sent any weather packets the latest 10 day(s).
| Time | Temp. | Humidity | Pressure | Rain* | Wind** | Luminosity | Snow |
|---|---|---|---|---|---|---|---|
| 1777352721 | 8.33° C | 91% | 1023.8 hPa | 0 mm | - | 0 W/m² | - |
| 1777352121 | 8.33° C | 90% | 1024.2 hPa | 0 mm | - | 0 W/m² | - |
| 1777351516 | 8.33° C | 90% | 1024.2 hPa | 0 mm | - | 0 W/m² | - |
| 1777350914 | 8.89° C | 88% | 1024.4 hPa | 0 mm | - | 0 W/m² | - |
| 1777350312 | 8.89° C | 88% | 1024.2 hPa | 0 mm | - | 0 W/m² | - |
| 1777349712 | 8.89° C | 87% | 1024 hPa | 0 mm | - | 0 W/m² | - |
| 1777349108 | 9.44° C | 85% | 1023.8 hPa | 0 mm | - | 0 W/m² | - |
| 1777348508 | 10° C | 85% | 1024 hPa | 0 mm | - | 0 W/m² | - |
| 1777347904 | 10° C | 84% | 1023.9 hPa | 0 mm | - | 0 W/m² | - |
| 1777347302 | 10.56° C | 81% | 1024.1 hPa | 0 mm | - | 0 W/m² | - |
| 1777346702 | 10.56° C | 79% | 1024.3 hPa | 0 mm | - | 0 W/m² | - |
| 1777346101 | 11.11° C | 77% | 1024.3 hPa | 0 mm | - | 0 W/m² | - |
| 1777345501 | 11.11° C | 76% | 1024.1 hPa | 0 mm | - | 0 W/m² | - |
| 1777344900 | 11.67° C | 75% | 1024.3 hPa | 0 mm | - | 0 W/m² | - |
| 1777344299 | 11.67° C | 75% | 1024.2 hPa | 0 mm | - | 0 W/m² | - |
| 1777343694 | 11.67° C | 74% | 1024.1 hPa | 0 mm | - | 0 W/m² | - |
| 1777343089 | 11.67° C | 73% | 1024.2 hPa | 0 mm | - | 0 W/m² | - |
| 1777342488 | 11.67° C | 73% | 1024.5 hPa | 0 mm | - | 0 W/m² | - |
| 1777341887 | 11.67° C | 77% | 1024.5 hPa | 0 mm | - | 0 W/m² | - |
| 1777341285 | 12.22° C | 75% | 1024.4 hPa | 0 mm | - | 0 W/m² | - |
| 1777340680 | 12.22° C | 69% | 1024.4 hPa | 0 mm | - | 0 W/m² | - |
| 1777340081 | 12.22° C | 70% | 1024.2 hPa | 0 mm | - | 0 W/m² | - |
| 1777339476 | 12.78° C | 71% | 1024.1 hPa | 0 mm | - | 0 W/m² | - |
| 1777338871 | 12.22° C | 73% | 1024 hPa | 0 mm | - | 0 W/m² | - |
| 1777338272 | 12.78° C | 74% | 1024 hPa | 0 mm | - | 0 W/m² | - |
* Rain latest hour (hover to see other rain measurements)
** Current wind speed in m/s (hover to see current wind gust speed)